| time (UTC) | temp F | wind direction | speed MPH | gust MPH | rain 1hr in | rain 24hr in | rain mn in | humidity % | barometer mb |
| 20260503231730 | 57 | 82 | 3.0 | 3.0 | 0.00 | 0.00 | 0.00 | 35 | 1011.1 |
| 20260503231226 | 58 | 96 | 1.0 | 1.0 | 0.00 | 0.00 | 0.00 | 35 | 1011.3 |
| 20260503230722 | 58 | 72 | 0.0 | 1.0 | 0.00 | 0.00 | 0.00 | 35 | 1011.0 |
| 20260503230220 | 58 | 66 | 2.0 | 3.0 | 0.00 | 0.00 | 0.00 | 34 | 1011.2 |
| 20260503225718 | 58 | 74 | 2.0 | 2.0 | 0.00 | 0.00 | 0.00 | 34 | 1010.9 |
| 20260503225218 | 58 | 71 | 1.0 | 1.0 | 0.00 | 0.00 | 0.00 | 34 | 1011.1 |
| 20260503224715 | 58 | 286 | 1.0 | 2.0 | 0.00 | 0.00 | 0.00 | 33 | 1010.9 |
| 20260503224213 | 59 | 127 | 0.0 | 1.0 | 0.00 | 0.00 | 0.00 | 34 | 1011.0 |
| 20260503223710 | 59 | 121 | 0.0 | 1.0 | 0.00 | 0.00 | 0.00 | 33 | 1011.0 |
| 20260503223207 | 59 | 290 | 1.0 | 1.0 | 0.00 | 0.00 | 0.00 | 32 | 1011.1 |
| 20260503222704 | 59 | 18 | 0.0 | 1.0 | 0.00 | 0.00 | 0.00 | 32 | 1010.8 |
| 20260503222202 | 59 | 58 | 1.0 | 1.0 | 0.00 | 0.00 | 0.00 | 31 | 1010.9 |
| 20260503221700 | 59 | 288 | 1.0 | 3.0 | 0.00 | 0.00 | 0.00 | 31 | 1011.1 |
| 20260503221157 | 59 | 65 | 1.0 | 1.0 | 0.00 | 0.00 | 0.00 | 32 | 1010.7 |
| 20260503220654 | 60 | 298 | 3.0 | 5.0 | 0.00 | 0.00 | 0.00 | 32 | 1010.7 |
| 20260503220150 | 59 | 71 | 1.0 | 1.0 | 0.00 | 0.00 | 0.00 | 32 | 1010.6 |
| 20260503215647 | 59 | 295 | 3.0 | 3.0 | 0.00 | 0.00 | 0.00 | 31 | 1010.9 |
| 20260503215144 | 59 | 94 | 0.0 | 1.0 | 0.00 | 0.00 | 0.00 | 33 | 1011.1 |
| 20260503214643 | 59 | 317 | 1.0 | 1.0 | 0.00 | 0.00 | 0.00 | 31 | 1010.9 |
| 20260503214138 | 59 | 344 | 2.0 | 5.0 | 0.00 | 0.00 | 0.00 | 32 | 1010.9 |
| 20260503213632 | 59 | 50 | 2.0 | 2.0 | 0.00 | 0.00 | 0.00 | 32 | 1010.9 |
| 20260503213128 | 59 | 63 | 1.0 | 1.0 | 0.00 | 0.00 | 0.00 | 32 | 1010.7 |
| 20260503212625 | 59 | 18 | 2.0 | 2.0 | 0.00 | 0.00 | 0.00 | 32 | 1011.0 |
| 20260503212123 | 60 | 349 | 2.0 | 2.0 | 0.00 | 0.00 | 0.00 | 30 | 1010.9 |
| 20260503211620 | 60 | 334 | 2.0 | 2.0 | 0.00 | 0.00 | 0.00 | 31 | 1010.7 |
| 20260503211116 | 60 | 322 | 2.0 | 2.0 | 0.00 | 0.00 | 0.00 | 32 | 1010.7 |
| 20260503210612 | 60 | 111 | 1.0 | 1.0 | 0.00 | 0.00 | 0.00 | 33 | 1010.7 |
| 20260503210109 | 60 | 70 | 1.0 | 2.0 | 0.00 | 0.00 | 0.00 | 31 | 1010.6 |
| 20260503205605 | 60 | 273 | 2.0 | 2.0 | 0.00 | 0.00 | 0.00 | 31 | 1010.6 |
| 20260503205101 | 60 | 36 | 0.0 | 1.0 | 0.00 | 0.00 | 0.00 | 32 | 1010.6 |
| 20260503204558 | 60 | 310 | 2.0 | 2.0 | 0.00 | 0.00 | 0.00 | 30 | 1010.9 |
| 20260503204056 | 60 | 105 | 0.0 | 0.0 | 0.00 | 0.00 | 0.00 | 33 | 1010.8 |
| 20260503203552 | 60 | 317 | 2.0 | 2.0 | 0.00 | 0.00 | 0.00 | 32 | 1010.7 |
| 20260503203050 | 59 | 288 | 2.0 | 2.0 | 0.00 | 0.00 | 0.00 | 33 | 1010.6 |
| 20260503202547 | 59 | 24 | 2.0 | 2.0 | 0.00 | 0.00 | 0.00 | 31 | 1011.1 |
| 20260503202045 | 60 | 312 | 3.0 | 5.0 | 0.00 | 0.00 | 0.00 | 33 | 1010.9 |
| 20260503201543 | 60 | 50 | 1.0 | 1.0 | 0.00 | 0.00 | 0.00 | 32 | 1010.9 |
| 20260503201040 | 59 | 274 | 2.0 | 2.0 | 0.00 | 0.00 | 0.00 | 33 | 1011.1 |
| 20260503200536 | 59 | 46 | 2.0 | 2.0 | 0.00 | 0.00 | 0.00 | 33 | 1011.1 |
| 20260503200033 | 59 | 201 | 2.0 | 2.0 | 0.00 | 0.00 | 0.00 | 36 | 1011.2 |
| 20260503195530 | 59 | 99 | 1.0 | 1.0 | 0.00 | 0.00 | 0.00 | 36 | 1011.1 |
| 20260503195027 | 59 | 243 | 3.0 | 5.0 | 0.00 | 0.00 | 0.00 | 33 | 1010.9 |
| 20260503194525 | 59 | 56 | 2.0 | 2.0 | 0.00 | 0.00 | 0.00 | 34 | 1011.1 |
| 20260503194024 | 59 | 299 | 4.0 | 5.0 | 0.00 | 0.00 | 0.00 | 33 | 1011.3 |
| 20260503193521 | 59 | 284 | 4.0 | 6.0 | 0.00 | 0.00 | 0.00 | 33 | 1011.0 |
| 20260503193016 | 59 | 80 | 0.0 | 1.0 | 0.00 | 0.00 | 0.00 | 34 | 1011.4 |
| 20260503192512 | 58 | 82 | 0.0 | 1.0 | 0.00 | 0.00 | 0.00 | 34 | 1011.5 |
| 20260503192008 | 58 | 277 | 3.0 | 5.0 | 0.00 | 0.00 | 0.00 | 33 | 1011.3 |
| 20260503191506 | 58 | 323 | 2.0 | 3.0 | 0.00 | 0.00 | 0.00 | 33 | 1011.3 |
| 20260503191002 | 58 | 55 | 1.0 | 2.0 | 0.00 | 0.00 | 0.00 | 35 | 1011.5 |
| 20260503190459 | 57 | 110 | 3.0 | 3.0 | 0.00 | 0.00 | 0.00 | 35 | 1011.4 |
| 20260503185956 | 57 | 311 | 3.0 | 3.0 | 0.00 | 0.00 | 0.00 | 34 | 1011.4 |
| 20260503185452 | 57 | 71 | 2.0 | 2.0 | 0.00 | 0.00 | 0.00 | 36 | 1011.6 |
| 20260503184952 | 57 | 78 | 1.0 | 3.0 | 0.00 | 0.00 | 0.00 | 35 | 1011.4 |
| 20260503184448 | 57 | 290 | 4.0 | 6.0 | 0.00 | 0.00 | 0.00 | 34 | 1011.8 |
| 20260503183945 | 57 | 155 | 3.0 | 3.0 | 0.00 | 0.00 | 0.00 | 37 | 1011.9 |
| 20260503183442 | 57 | 310 | 3.0 | 5.0 | 0.00 | 0.00 | 0.00 | 36 | 1011.7 |
| 20260503182938 | 58 | 50 | 2.0 | 2.0 | 0.00 | 0.00 | 0.00 | 36 | 1012.0 |
| 20260503182437 | 59 | 300 | 4.0 | 5.0 | 0.00 | 0.00 | 0.00 | 34 | 1011.6 |
| 20260503181935 | 57 | 71 | 0.0 | 1.0 | 0.00 | 0.00 | 0.00 | 36 | 1011.7 |
| 20260503181432 | 56 | 24 | 3.0 | 5.0 | 0.00 | 0.00 | 0.00 | 35 | 1011.7 |
| 20260503180927 | 56 | 352 | 1.0 | 2.0 | 0.00 | 0.00 | 0.00 | 38 | 1011.7 |
| 20260503180427 | 57 | 56 | 1.0 | 2.0 | 0.00 | 0.00 | 0.00 | 38 | 1011.8 |
| 20260503175923 | 58 | 54 | 1.0 | 1.0 | 0.00 | 0.00 | 0.00 | 36 | 1011.5 |
| 20260503175421 | 59 | 100 | 1.0 | 2.0 | 0.00 | 0.00 | 0.00 | 37 | 1011.8 |
| 20260503174916 | 58 | 312 | 3.0 | 3.0 | 0.00 | 0.00 | 0.00 | 37 | 1011.8 |
| 20260503174415 | 56 | 140 | 1.0 | 1.0 | 0.00 | 0.00 | 0.00 | 39 | 1011.9 |
| 20260503173914 | 55 | 293 | 1.0 | 2.0 | 0.00 | 0.00 | 0.00 | 38 | 1012.1 |
| 20260503173411 | 57 | 33 | 2.0 | 3.0 | 0.00 | 0.00 | 0.00 | 38 | 1012.1 |
| 20260503172908 | 55 | 84 | 1.0 | 2.0 | 0.00 | 0.00 | 0.00 | 41 | 1012.1 |
| 20260503172406 | 54 | 23 | 3.0 | 5.0 | 0.00 | 0.00 | 0.00 | 40 | 1012.1 |
| 20260503171901 | 54 | 284 | 3.0 | 5.0 | 0.00 | 0.00 | 0.00 | 40 | 1012.2 |
| 20260503171358 | 55 | 54 | 2.0 | 2.0 | 0.00 | 0.00 | 0.00 | 41 | 1012.4 |
| 20260503170856 | 55 | 308 | 2.0 | 2.0 | 0.00 | 0.00 | 0.00 | 41 | 1012.3 |
| 20260503170352 | 57 | 72 | 2.0 | 2.0 | 0.00 | 0.00 | 0.00 | 39 | 1012.4 |
| 20260503150744 | 50 | 320 | 2.0 | 2.0 | 0.00 | 0.00 | 0.00 | 46 | 1012.8 |
| 20260503150240 | 50 | 66 | 0.0 | 1.0 | 0.00 | 0.00 | 0.00 | 49 | 1012.9 |
| 20260503140205 | 51 | 68 | 1.0 | 2.0 | 0.00 | 0.00 | 0.00 | 49 | 1012.7 |
| 20260503131134 | 48 | 55 | 1.0 | 2.0 | 0.00 | 0.00 | 0.00 | 55 | 1012.7 |
| 20260503130632 | 48 | 62 | 0.0 | 1.0 | 0.00 | 0.00 | 0.00 | 56 | 1012.5 |
| 20260503130129 | 48 | 58 | 1.0 | 1.0 | 0.00 | 0.00 | 0.00 | 57 | 1012.8 |
| 20260503110522 | 43 | 71 | 0.0 | 1.0 | 0.00 | 0.00 | 0.00 | 65 | 1012.5 |
| 20260503090408 | 44 | 72 | 0.0 | 0.0 | 0.00 | 0.00 | 0.00 | 59 | 1011.2 |
| 20260503081335 | 45 | 66 | 0.0 | 1.0 | 0.00 | 0.00 | 0.00 | 59 | 1010.9 |
| 20260503080832 | 45 | 70 | 0.0 | 0.0 | 0.00 | 0.00 | 0.00 | 59 | 1010.9 |
| 20260503080329 | 45 | 56 | 0.0 | 0.0 | 0.00 | 0.00 | 0.00 | 59 | 1011.0 |
| 20260503072805 | 45 | 62 | 0.0 | 0.0 | 0.00 | 0.00 | 0.00 | 60 | 1010.8 |
| 20260503072305 | 45 | 62 | 0.0 | 0.0 | 0.00 | 0.00 | 0.00 | 61 | 1011.0 |
| 20260503071758 | 45 | 62 | 0.0 | 0.0 | 0.00 | 0.00 | 0.00 | 60 | 1011.0 |
| 20260503071255 | 45 | 62 | 0.0 | 1.0 | 0.00 | 0.00 | 0.00 | 60 | 1010.8 |
| 20260503070752 | 45 | 62 | 1.0 | 1.0 | 0.00 | 0.00 | 0.00 | 60 | 1010.9 |
| 20260503070250 | 45 | 62 | 0.0 | 0.0 | 0.00 | 0.00 | 0.00 | 60 | 1011.1 |
| 20260503060215 | 47 | 62 | 0.0 | 0.0 | 0.00 | 0.00 | 0.00 | 56 | 1010.8 |
| 20260503054702 | 47 | 62 | 0.0 | 0.0 | 0.00 | 0.00 | 0.00 | 57 | 1011.2 |
| 20260503054159 | 47 | 62 | 0.0 | 0.0 | 0.00 | 0.00 | 0.00 | 56 | 1011.0 |
| 20260503053657 | 47 | 62 | 0.0 | 0.0 | 0.00 | 0.00 | 0.00 | 57 | 1011.3 |
| 20260503053155 | 48 | 62 | 0.0 | 0.0 | 0.00 | 0.00 | 0.00 | 56 | 1011.2 |
| 20260503052651 | 48 | 62 | 0.0 | 0.0 | 0.00 | 0.00 | 0.00 | 54 | 1011.1 |
| 20260503052148 | 48 | 58 | 0.0 | 0.0 | 0.00 | 0.00 | 0.00 | 55 | 1011.3 |
| 20260503051643 | 48 | 58 | 0.0 | 1.0 | 0.00 | 0.00 | 0.00 | 54 | 1011.3 |
| 20260503051141 | 48 | 55 | 0.0 | 0.0 | 0.00 | 0.00 | 0.00 | 54 | 1011.3 |
| 20260503050637 | 48 | 66 | 0.0 | 0.0 | 0.00 | 0.00 | 0.00 | 55 | 1011.4 |
| 20260503050134 | 48 | 66 | 0.0 | 0.0 | 0.00 | 0.00 | 0.00 | 55 | 1011.5 |
| 20260503045632 | 48 | 66 | 0.0 | 0.0 | 0.00 | 0.00 | 0.00 | 56 | 1011.4 |
| 20260503045129 | 48 | 66 | 0.0 | 0.0 | 0.00 | 0.00 | 0.00 | 56 | 1011.6 |
| 20260503044625 | 48 | 66 | 0.0 | 0.0 | 0.00 | 0.00 | 0.00 | 55 | 1011.6 |
| 20260503044123 | 48 | 66 | 0.0 | 0.0 | 0.00 | 0.00 | 0.00 | 57 | 1011.5 |
| 20260503043619 | 48 | 66 | 0.0 | 1.0 | 0.00 | 0.00 | 0.00 | 57 | 1011.6 |
| 20260503043116 | 48 | 66 | 0.0 | 0.0 | 0.00 | 0.00 | 0.00 | 56 | 1011.5 |
| 20260503042613 | 48 | 66 | 0.0 | 0.0 | 0.00 | 0.00 | 0.00 | 56 | 1011.6 |
| 20260503042109 | 48 | 66 | 0.0 | 0.0 | 0.00 | 0.00 | 0.00 | 56 | 1011.9 |
| 20260503041605 | 48 | 66 | 0.0 | 0.0 | 0.00 | 0.00 | 0.00 | 55 | 1011.6 |
| 20260503041104 | 48 | 66 | 0.0 | 0.0 | 0.00 | 0.00 | 0.00 | 55 | 1011.7 |
| 20260503040600 | 48 | 66 | 0.0 | 0.0 | 0.00 | 0.00 | 0.00 | 55 | 1011.5 |
| 20260503040058 | 48 | 66 | 0.0 | 0.0 | 0.00 | 0.00 | 0.00 | 54 | 1011.8 |
| 20260503035554 | 48 | 66 | 1.0 | 1.0 | 0.00 | 0.00 | 0.00 | 54 | 1011.6 |
| 20260503035052 | 48 | 66 | 0.0 | 0.0 | 0.00 | 0.00 | 0.00 | 55 | 1011.7 |
| 20260503034549 | 49 | 66 | 0.0 | 0.0 | 0.00 | 0.00 | 0.00 | 54 | 1011.5 |
| 20260503034046 | 49 | 66 | 0.0 | 0.0 | 0.00 | 0.00 | 0.00 | 54 | 1011.6 |
| 20260503033543 | 49 | 66 | 0.0 | 0.0 | 0.00 | 0.00 | 0.00 | 53 | 1011.6 |
| 20260503033041 | 49 | 66 | 0.0 | 0.0 | 0.00 | 0.00 | 0.00 | 52 | 1011.6 |
| 20260503032539 | 49 | 66 | 0.0 | 0.0 | 0.00 | 0.00 | 0.00 | 53 | 1011.6 |
| 20260503032037 | 49 | 66 | 0.0 | 0.0 | 0.00 | 0.00 | 0.00 | 52 | 1011.5 |
| 20260503031535 | 49 | 66 | 0.0 | 0.0 | 0.00 | 0.00 | 0.00 | 52 | 1011.4 |
| 20260503031032 | 49 | 66 | 0.0 | 0.0 | 0.00 | 0.00 | 0.00 | 52 | 1011.3 |
| 20260503030527 | 49 | 70 | 0.0 | 0.0 | 0.00 | 0.00 | 0.00 | 53 | 1011.5 |
| 20260503030025 | 49 | 67 | 0.0 | 0.0 | 0.00 | 0.00 | 0.00 | 54 | 1011.8 |
| 20260503025521 | 49 | 66 | 0.0 | 0.0 | 0.00 | 0.00 | 0.00 | 54 | 1011.8 |
| 20260503025020 | 49 | 66 | 0.0 | 1.0 | 0.00 | 0.00 | 0.00 | 53 | 1011.6 |
| 20260503024515 | 49 | 71 | 0.0 | 0.0 | 0.00 | 0.00 | 0.00 | 54 | 1011.5 |
| 20260503024013 | 49 | 66 | 1.0 | 1.0 | 0.00 | 0.00 | 0.00 | 54 | 1011.6 |
| 20260503023509 | 50 | 72 | 0.0 | 0.0 | 0.00 | 0.00 | 0.00 | 54 | 1011.7 |
| 20260503023007 | 50 | 72 | 0.0 | 0.0 | 0.00 | 0.00 | 0.00 | 54 | 1011.7 |
| 20260503022502 | 50 | 72 | 0.0 | 0.0 | 0.00 | 0.00 | 0.00 | 54 | 1011.8 |
| 20260503021957 | 50 | 72 | 0.0 | 0.0 | 0.00 | 0.00 | 0.00 | 53 | 1011.7 |
| 20260503021454 | 50 | 72 | 0.0 | 0.0 | 0.00 | 0.00 | 0.00 | 55 | 1011.7 |
| 20260503020951 | 50 | 74 | 0.0 | 0.0 | 0.00 | 0.00 | 0.00 | 55 | 1011.6 |
| 20260503020449 | 50 | 74 | 0.0 | 0.0 | 0.00 | 0.00 | 0.00 | 54 | 1011.8 |
| 20260503015945 | 50 | 74 | 0.0 | 0.0 | 0.00 | 0.00 | 0.00 | 57 | 1011.9 |
| 20260503015442 | 50 | 74 | 0.0 | 0.0 | 0.00 | 0.00 | 0.00 | 56 | 1011.7 |
| 20260503014938 | 50 | 74 | 0.0 | 0.0 | 0.00 | 0.00 | 0.00 | 55 | 1011.6 |
| 20260503014435 | 51 | 74 | 0.0 | 0.0 | 0.00 | 0.00 | 0.00 | 55 | 1011.7 |
| 20260503013933 | 51 | 74 | 0.0 | 0.0 | 0.00 | 0.00 | 0.00 | 55 | 1012.1 |
| 20260503013430 | 51 | 74 | 0.0 | 0.0 | 0.00 | 0.00 | 0.00 | 55 | 1011.8 |
| 20260503012927 | 51 | 74 | 0.0 | 0.0 | 0.00 | 0.00 | 0.00 | 55 | 1011.9 |
| 20260503012426 | 51 | 74 | 0.0 | 0.0 | 0.00 | 0.00 | 0.00 | 54 | 1011.9 |
| 20260503011921 | 51 | 74 | 0.0 | 0.0 | 0.00 | 0.00 | 0.00 | 55 | 1011.6 |
| 20260503011418 | 51 | 74 | 0.0 | 0.0 | 0.00 | 0.00 | 0.00 | 54 | 1011.6 |
| 20260503010915 | 51 | 74 | 0.0 | 0.0 | 0.00 | 0.00 | 0.00 | 54 | 1011.6 |
| 20260503010412 | 52 | 74 | 0.0 | 0.0 | 0.00 | 0.00 | 0.00 | 54 | 1011.6 |
| 20260503005909 | 52 | 74 | 0.0 | 0.0 | 0.00 | 0.00 | 0.00 | 53 | 1011.3 |
| 20260503005407 | 52 | 74 | 0.0 | 0.0 | 0.00 | 0.00 | 0.00 | 53 | 1011.3 |
| 20260503004902 | 52 | 74 | 0.0 | 0.0 | 0.00 | 0.00 | 0.00 | 52 | 1011.3 |
| 20260503004400 | 52 | 74 | 0.0 | 0.0 | 0.00 | 0.00 | 0.00 | 52 | 1011.3 |
| 20260503003857 | 52 | 74 | 0.0 | 0.0 | 0.00 | 0.00 | 0.00 | 52 | 1011.2 |
| 20260503003354 | 53 | 74 | 0.0 | 0.0 | 0.00 | 0.00 | 0.00 | 51 | 1011.0 |
| 20260503002851 | 53 | 74 | 0.0 | 0.0 | 0.00 | 0.00 | 0.00 | 51 | 1011.0 |
| 20260503002349 | 53 | 74 | 0.0 | 0.0 | 0.00 | 0.00 | 0.00 | 51 | 1011.1 |
| 20260503001844 | 53 | 74 | 0.0 | 0.0 | 0.00 | 0.00 | 0.00 | 50 | 1011.0 |
| 20260503001341 | 53 | 74 | 0.0 | 0.0 | 0.00 | 0.00 | 0.00 | 49 | 1011.1 |
| 20260503000838 | 53 | 74 | 0.0 | 0.0 | 0.00 | 0.00 | 0.00 | 47 | 1011.0 |
| 20260503000336 | 54 | 74 | 0.0 | 0.0 | 0.00 | 0.00 | 0.00 | 46 | 1011.1 |
| 20260502235833 | 54 | 74 | 0.0 | 0.0 | 0.00 | 0.00 | 0.00 | 47 | 1010.8 |
| 20260502235330 | 54 | 74 | 0.0 | 0.0 | 0.00 | 0.00 | 0.00 | 45 | 1011.0 |
| 20260502234827 | 55 | 74 | 0.0 | 0.0 | 0.00 | 0.00 | 0.00 | 46 | 1010.9 |
| 20260502234323 | 55 | 74 | 0.0 | 0.0 | 0.00 | 0.00 | 0.00 | 45 | 1011.1 |
| 20260502233820 | 55 | 74 | 0.0 | 0.0 | 0.00 | 0.00 | 0.00 | 45 | 1011.1 |
| 20260502233316 | 55 | 74 | 0.0 | 0.0 | 0.00 | 0.00 | 0.00 | 45 | 1010.8 |
| 20260502232813 | 55 | 74 | 1.0 | 1.0 | 0.00 | 0.00 | 0.00 | 44 | 1011.0 |
| 20260502232310 | 56 | 79 | 0.0 | 0.0 | 0.00 | 0.00 | 0.00 | 44 | 1010.9 |